Year,Month,Day,Hour,Minute,Value (Times are PST for temperature in C)
2020,04,12,12,07,13.20
2020,04,12,12,08,13.30
2020,04,12,12,09,13.40
2020,04,12,12,10,13.50
2020,04,12,12,11,13.60
2020,04,12,12,12,13.50
2020,04,12,12,13,13.40
2020,04,12,12,14,13.30
2020,04,12,12,15,13.30
2020,04,12,12,16,13.30
2020,04,12,12,17,13.30
2020,04,12,12,18,13.30
2020,04,12,12,19,13.30
2020,04,12,12,20,13.30
2020,04,12,12,21,13.30
2020,04,12,12,22,13.30
2020,04,12,12,23,13.30
2020,04,12,12,24,13.30
2020,04,12,12,25,13.30
2020,04,12,12,26,13.20
2020,04,12,12,27,13.30
2020,04,12,12,28,13.30
2020,04,12,12,29,13.40
2020,04,12,12,30,13.40
2020,04,12,12,31,13.30
2020,04,12,12,32,13.30
2020,04,12,12,33,13.30
2020,04,12,12,34,13.30
2020,04,12,12,35,13.30
2020,04,12,12,36,13.30
2020,04,12,12,37,13.30
2020,04,12,12,38,13.40
2020,04,12,12,39,13.40
2020,04,12,12,40,13.50
2020,04,12,12,41,13.60
2020,04,12,12,42,13.60
2020,04,12,12,43,13.60
2020,04,12,12,44,13.60
2020,04,12,12,45,13.60
2020,04,12,12,46,13.60
2020,04,12,12,47,13.60
2020,04,12,12,48,13.70
2020,04,12,12,49,13.70
2020,04,12,12,50,13.80
2020,04,12,12,51,13.80
2020,04,12,12,52,13.80
2020,04,12,12,53,13.70
2020,04,12,12,54,13.60
2020,04,12,12,55,13.60
2020,04,12,12,56,13.60
2020,04,12,12,57,13.60
2020,04,12,12,58,13.70
2020,04,12,12,59,13.70
2020,04,12,13,00,13.60
2020,04,12,13,01,13.60
2020,04,12,13,02,13.60
2020,04,12,13,03,13.60
2020,04,12,13,04,13.60
2020,04,12,13,05,13.70
2020,04,12,13,06,13.70
2020,04,12,13,07,13.80
2020,04,12,13,08,13.80
2020,04,12,13,09,13.80
2020,04,12,13,10,13.80
2020,04,12,13,11,13.80
2020,04,12,13,12,13.70
2020,04,12,13,13,13.70
2020,04,12,13,14,13.70
2020,04,12,13,15,13.80
2020,04,12,13,16,13.90
2020,04,12,13,17,14.10
2020,04,12,13,18,14.20
2020,04,12,13,19,14.20
2020,04,12,13,20,14.10
2020,04,12,13,21,14.10
2020,04,12,13,22,14.10
2020,04,12,13,23,14.10
2020,04,12,13,24,14.20
2020,04,12,13,25,14.30
2020,04,12,13,26,14.30
2020,04,12,13,27,14.30
2020,04,12,13,28,14.40
2020,04,12,13,29,14.40
2020,04,12,13,30,14.40
2020,04,12,13,31,14.40
2020,04,12,13,32,14.40
2020,04,12,13,33,14.30
2020,04,12,13,34,14.20
2020,04,12,13,35,14.10
2020,04,12,13,36,14.00
2020,04,12,13,37,14.00
2020,04,12,13,38,14.10
2020,04,12,13,39,14.20
2020,04,12,13,40,14.10
2020,04,12,13,41,14.10
2020,04,12,13,42,14.20
2020,04,12,13,43,14.30
2020,04,12,13,44,14.30
2020,04,12,13,45,14.40
2020,04,12,13,46,14.40
2020,04,12,13,47,14.30
2020,04,12,13,48,14.20
2020,04,12,13,49,14.10
2020,04,12,13,50,14.00
2020,04,12,13,51,14.00
2020,04,12,13,52,14.10
2020,04,12,13,53,14.20
2020,04,12,13,54,14.30
2020,04,12,13,55,14.40
2020,04,12,13,56,14.40
2020,04,12,13,57,14.50
2020,04,12,13,58,14.60
2020,04,12,13,59,14.70
2020,04,12,14,00,14.60
2020,04,12,14,01,14.50
2020,04,12,14,02,14.40
2020,04,12,14,03,14.40
2020,04,12,14,04,14.40
2020,04,12,14,05,14.20
2020,04,12,14,06,14.10
2020,04,12,14,07,14.10
2020,04,12,14,08,14.00
2020,04,12,14,09,14.00
2020,04,12,14,10,13.90
2020,04,12,14,11,13.90
2020,04,12,14,12,14.00
2020,04,12,14,13,14.10
2020,04,12,14,14,14.10
2020,04,12,14,15,14.10
2020,04,12,14,16,14.20
2020,04,12,14,17,14.30
2020,04,12,14,18,14.40
2020,04,12,14,19,14.50
2020,04,12,14,20,14.50
2020,04,12,14,21,14.60
2020,04,12,14,22,14.70
2020,04,12,14,23,14.70
2020,04,12,14,24,14.80
2020,04,12,14,25,14.80
2020,04,12,14,26,14.80
2020,04,12,14,27,14.80
2020,04,12,14,28,14.90
2020,04,12,14,29,14.90
2020,04,12,14,30,14.80
2020,04,12,14,31,14.80
2020,04,12,14,32,14.80
2020,04,12,14,33,14.80
2020,04,12,14,34,14.80
2020,04,12,14,35,14.70
2020,04,12,14,36,14.80
2020,04,12,14,37,14.90
2020,04,12,14,38,15.00
2020,04,12,14,39,14.90
2020,04,12,14,40,14.90
2020,04,12,14,41,14.90
2020,04,12,14,42,14.90
2020,04,12,14,43,14.90
2020,04,12,14,44,14.80
2020,04,12,14,45,14.90
2020,04,12,14,46,14.90
2020,04,12,14,47,14.80
2020,04,12,14,48,14.80
2020,04,12,14,49,14.70
2020,04,12,14,50,14.70
2020,04,12,14,51,14.70
2020,04,12,14,52,14.80
2020,04,12,14,53,14.90
2020,04,12,14,54,14.90
2020,04,12,14,55,15.00
2020,04,12,14,56,15.10
2020,04,12,14,57,15.20
2020,04,12,14,58,15.30
2020,04,12,14,59,15.20
2020,04,12,15,00,15.20
2020,04,12,15,01,15.10
2020,04,12,15,02,15.00
2020,04,12,15,03,14.90
2020,04,12,15,04,14.90
2020,04,12,15,05,14.80
2020,04,12,15,06,14.70
2020,04,12,15,07,14.60
2020,04,12,15,08,14.50
2020,04,12,15,09,14.50
2020,04,12,15,10,14.40
2020,04,12,15,11,14.50
2020,04,12,15,12,14.50
2020,04,12,15,13,14.60
2020,04,12,15,14,14.70
2020,04,12,15,15,14.60
2020,04,12,15,16,14.60
2020,04,12,15,17,14.50
2020,04,12,15,18,14.50
2020,04,12,15,19,14.50
2020,04,12,15,20,14.40
2020,04,12,15,21,14.40
2020,04,12,15,22,14.40
2020,04,12,15,23,14.40
2020,04,12,15,24,14.40
2020,04,12,15,25,14.40
2020,04,12,15,26,14.30
2020,04,12,15,27,14.30
2020,04,12,15,28,14.30
2020,04,12,15,29,14.30
2020,04,12,15,30,14.30
2020,04,12,15,31,14.20
2020,04,12,15,32,14.30
2020,04,12,15,33,14.30
2020,04,12,15,34,14.30
2020,04,12,15,35,14.20
2020,04,12,15,36,14.00
2020,04,12,15,37,13.90
2020,04,12,15,38,13.90
2020,04,12,15,39,14.00
2020,04,12,15,40,14.00
2020,04,12,15,41,14.00
2020,04,12,15,42,14.10
2020,04,12,15,43,14.10
2020,04,12,15,44,14.20
2020,04,12,15,45,14.30
2020,04,12,15,46,14.30
2020,04,12,15,47,14.40
2020,04,12,15,48,14.40
2020,04,12,15,49,14.40
2020,04,12,15,50,14.40
2020,04,12,15,51,14.30
2020,04,12,15,52,14.20
2020,04,12,15,53,14.30
2020,04,12,15,54,14.30
2020,04,12,15,55,14.30
2020,04,12,15,56,14.20
2020,04,12,15,57,14.10
2020,04,12,15,58,14.10
2020,04,12,15,59,14.00
2020,04,12,16,00,13.90
2020,04,12,16,01,13.90
2020,04,12,16,02,13.90
2020,04,12,16,03,13.90
2020,04,12,16,04,13.90
2020,04,12,16,05,13.90
2020,04,12,16,06,13.90
2020,04,12,16,07,13.90
2020,04,12,16,08,14.00
2020,04,12,16,09,14.10
2020,04,12,16,10,14.10
2020,04,12,16,11,14.10
2020,04,12,16,12,14.10
2020,04,12,16,13,14.10
2020,04,12,16,14,14.00
2020,04,12,16,15,14.00
2020,04,12,16,16,14.10
2020,04,12,16,17,14.10
2020,04,12,16,18,14.10
2020,04,12,16,19,14.20
2020,04,12,16,20,14.20
2020,04,12,16,21,14.30
2020,04,12,16,22,14.20
2020,04,12,16,23,14.20
2020,04,12,16,24,14.20
2020,04,12,16,25,14.20
2020,04,12,16,26,14.20
2020,04,12,16,27,14.20
2020,04,12,16,28,14.20
2020,04,12,16,29,14.30
2020,04,12,16,30,14.30
2020,04,12,16,31,14.30
2020,04,12,16,32,14.30
2020,04,12,16,33,14.30
2020,04,12,16,34,14.40
2020,04,12,16,35,14.40
2020,04,12,16,36,14.50
2020,04,12,16,37,14.50
2020,04,12,16,38,14.40
2020,04,12,16,39,14.40
2020,04,12,16,40,14.50
2020,04,12,16,41,14.50
2020,04,12,16,42,14.50
2020,04,12,16,43,14.50
2020,04,12,16,44,14.50
2020,04,12,16,45,14.60
2020,04,12,16,46,14.70
2020,04,12,16,47,14.70
2020,04,12,16,48,14.70
2020,04,12,16,49,14.60
2020,04,12,16,50,14.50
2020,04,12,16,51,14.50
2020,04,12,16,52,14.60
2020,04,12,16,53,14.60
2020,04,12,16,54,14.60
2020,04,12,16,55,14.60
2020,04,12,16,56,14.60
2020,04,12,16,57,14.50
2020,04,12,16,58,14.40
2020,04,12,16,59,14.40
2020,04,12,17,00,14.30
2020,04,12,17,01,14.30
2020,04,12,17,02,14.30
2020,04,12,17,03,14.30
2020,04,12,17,04,14.40
2020,04,12,17,05,14.40
2020,04,12,17,06,14.40
2020,04,12,17,07,14.40
2020,04,12,17,08,14.30
2020,04,12,17,09,14.30
2020,04,12,17,10,14.30
2020,04,12,17,11,14.30
2020,04,12,17,12,14.20
2020,04,12,17,13,14.30
2020,04,12,17,14,14.40
2020,04,12,17,15,14.50
2020,04,12,17,16,14.50
2020,04,12,17,17,14.60
2020,04,12,17,18,14.60
2020,04,12,17,19,14.60
2020,04,12,17,20,14.60
2020,04,12,17,21,14.60
2020,04,12,17,22,14.60
2020,04,12,17,23,14.60
2020,04,12,17,24,14.50
2020,04,12,17,25,14.50
2020,04,12,17,26,14.50
2020,04,12,17,27,14.50
2020,04,12,17,28,14.60
2020,04,12,17,29,14.50
2020,04,12,17,30,14.50
2020,04,12,17,31,14.50
2020,04,12,17,32,14.50
2020,04,12,17,33,14.40
2020,04,12,17,34,14.30
2020,04,12,17,35,14.30
2020,04,12,17,36,14.30
2020,04,12,17,37,14.20
2020,04,12,17,38,14.20
2020,04,12,17,39,14.20
2020,04,12,17,40,14.20
2020,04,12,17,41,14.30
2020,04,12,17,42,14.30
2020,04,12,17,43,14.30
2020,04,12,17,44,14.40
2020,04,12,17,45,14.50
2020,04,12,17,46,14.60
2020,04,12,17,47,14.70
2020,04,12,17,48,14.80
2020,04,12,17,49,14.80
2020,04,12,17,50,14.90
2020,04,12,17,51,14.90
2020,04,12,17,52,14.90
2020,04,12,17,53,15.00
2020,04,12,17,54,15.00
2020,04,12,17,55,15.10
2020,04,12,17,56,15.00
2020,04,12,17,57,15.10
2020,04,12,17,58,15.00
2020,04,12,17,59,15.00
2020,04,12,18,00,14.90
2020,04,12,18,01,14.70
2020,04,12,18,02,14.50
2020,04,12,18,03,14.40
2020,04,12,18,04,14.30
2020,04,12,18,05,14.30
2020,04,12,18,06,14.20
2020,04,12,18,07,14.20
2020,04,12,18,08,14.30
2020,04,12,18,09,14.20
2020,04,12,18,10,14.20
2020,04,12,18,11,14.20
2020,04,12,18,12,14.10
2020,04,12,18,13,14.10
2020,04,12,18,14,14.10
2020,04,12,18,15,14.10
2020,04,12,18,16,14.10
2020,04,12,18,17,14.10
2020,04,12,18,18,14.10
2020,04,12,18,19,14.10
2020,04,12,18,20,14.10
2020,04,12,18,21,14.10
2020,04,12,18,22,14.10
2020,04,12,18,23,14.00
2020,04,12,18,24,13.90
2020,04,12,18,25,13.90
2020,04,12,18,26,13.80
2020,04,12,18,27,13.80
2020,04,12,18,28,13.80
2020,04,12,18,29,13.80
2020,04,12,18,30,13.80
2020,04,12,18,31,13.80
2020,04,12,18,32,13.70
2020,04,12,18,33,13.70
2020,04,12,18,34,13.70
2020,04,12,18,35,13.70
2020,04,12,18,36,13.60
2020,04,12,18,37,13.60
2020,04,12,18,38,13.60
2020,04,12,18,39,13.60
2020,04,12,18,40,13.60
2020,04,12,18,41,13.50
2020,04,12,18,42,13.50
2020,04,12,18,43,13.50
2020,04,12,18,44,13.50
2020,04,12,18,45,13.50
2020,04,12,18,46,13.40
2020,04,12,18,47,13.40
2020,04,12,18,48,13.40
2020,04,12,18,49,13.40
2020,04,12,18,50,13.40
2020,04,12,18,51,13.40
2020,04,12,18,52,13.40
2020,04,12,18,53,13.40
2020,04,12,18,54,13.40
2020,04,12,18,55,13.40
2020,04,12,18,56,13.40
2020,04,12,18,57,13.40
2020,04,12,18,58,13.30
2020,04,12,18,59,13.30
2020,04,12,19,00,13.30
2020,04,12,19,01,13.30
2020,04,12,19,02,13.30
2020,04,12,19,03,13.30
2020,04,12,19,04,13.30
2020,04,12,19,05,13.30
2020,04,12,19,06,13.20
2020,04,12,19,07,13.20
2020,04,12,19,08,13.20
2020,04,12,19,09,13.20
2020,04,12,19,10,13.20
2020,04,12,19,11,13.20
2020,04,12,19,12,13.20
2020,04,12,19,13,13.20
2020,04,12,19,14,13.20
2020,04,12,19,15,13.20
2020,04,12,19,16,13.10
2020,04,12,19,17,13.10
2020,04,12,19,18,13.10
2020,04,12,19,19,13.10
2020,04,12,19,20,13.10
2020,04,12,19,21,13.10
2020,04,12,19,22,13.10
2020,04,12,19,23,13.10
2020,04,12,19,24,13.10
2020,04,12,19,25,13.10
2020,04,12,19,26,13.10
2020,04,12,19,27,13.10
2020,04,12,19,28,13.10
2020,04,12,19,29,13.00
2020,04,12,19,30,13.10
2020,04,12,19,31,13.00
2020,04,12,19,32,13.00
2020,04,12,19,33,13.00
2020,04,12,19,34,13.00
2020,04,12,19,35,13.00
2020,04,12,19,36,12.90
2020,04,12,19,37,12.90
2020,04,12,19,38,12.90
2020,04,12,19,39,12.90
2020,04,12,19,40,12.80
2020,04,12,19,41,12.80
2020,04,12,19,42,12.80
2020,04,12,19,43,12.80
2020,04,12,19,44,12.80
2020,04,12,19,45,12.70
2020,04,12,19,46,12.70
2020,04,12,19,47,12.60
2020,04,12,19,48,12.60
2020,04,12,19,49,12.50
2020,04,12,19,50,12.40
2020,04,12,19,51,12.30
2020,04,12,19,52,12.20
2020,04,12,19,53,12.20
2020,04,12,19,54,12.20
2020,04,12,19,55,12.20
2020,04,12,19,56,12.20
2020,04,12,19,57,12.20
2020,04,12,19,58,12.20
2020,04,12,19,59,12.20
2020,04,12,20,00,12.20
2020,04,12,20,01,12.20
2020,04,12,20,02,12.20
